Flag Weather past 2 weeks in Baltimore, Maryland, U.S.A.

Now
36 °F

Mostly cloudy.


Feels Like: 30 °F
Forecast: 31 / 39 °F
Wind: 7 mph from Northwest

Location: Baltimore-Washington International Airport

Current Time: Nov 26, 2014 at 9:07:02 PM

Latest Report: Nov 26, 2014 at 7:54 PM


Visibility: 10 mi

Pressure: 29.93 "Hg

Humidity: 89%

Dew point: 33 °F

Location of BaltimoreLocation

Historic Weather in Baltimore — Graph

°F

Baltimore temperature yesterday

Maximum temperature yesterday: 63 °F (at 12:54 AM)
Minimum temperature yesterday: 43 °F (at 8:54 PM)
Average temperature yesterday: 52 °F

Past Weeks' High & Low Weather Summary

 TemperatureHumidityPressure
High71 °F (Nov 24, 2:54 PM)100% (Nov 12, 4:00 AM)30.55 "Hg (Nov 12, 4:00 AM)
Low19 °F (Nov 22, 5:54 AM)26% (Nov 22, 1:54 PM)29.55 "Hg (Nov 17, 2:54 PM)
Average41 °F59%30.09 "Hg
* Reported Nov 11 7:54 PM — Nov 26 7:54 PM, Baltimore, Weather by CustomWeather, © 2014

Note: Actual official high and low records may vary slightly from our data, if they occured in-between our weather recording intervals... More about our weather records

Advertising

Baltimore weather history for previous 24 hours

 ConditionsComfort  
Time TempWeatherWind HumidityBarometerVisibility
7:54 PM
Nov 26
36 °FMostly cloudy.7 mph89%29.93 "Hg10 mi
6:54 PM36 °FOvercast.7 mph89%29.92 "Hg10 mi
5:54 PM35 °FLight rain. Fog.7 mph92%29.93 "Hg6 mi
4:54 PM35 °FLight rain. Overcast.9 mph92%29.93 "Hg7 mi
3:54 PM35 °FLight rain. Fog.8 mph92%29.91 "Hg2 mi
2:54 PM34 °FLight snow. Fog.8 mph92%29.88 "Hg2 mi
2:04 PM36 °FLight rain. Fog.6 mph93%29.89 "Hg2 mi
1:54 PM35 °FLight rain. Fog.6 mph92%29.90 "Hg4 mi
12:54 PM34 °FLight rain. Fog.7 mph92%29.92 "Hg2 mi
11:54 AM33 °FSnow. Fog.7 mph92%29.98 "Hg1 mi
10:54 AM35 °FLight snow. Fog.6 mph92%30.04 "Hg1 mi
9:54 AM39 °FRain. Fog.7 mph89%30.08 "Hg3 mi
8:58 AM41 °FRain. Fog.6 mph93%30.11 "Hg2 mi
7:54 AM42 °FRain. Fog.9 mph89%30.07 "Hg2 mi
6:54 AM42 °FLight rain. Fog.7 mph89%30.09 "Hg6 mi
5:54 AM42 °FLight rain. Fog.3 mph85%30.10 "Hg6 mi
4:54 AM45 °FLight rain. Overcast.3 mph76%30.06 "Hg9 mi
3:54 AM48 °FLight rain. Overcast.5 mph59%30.07 "Hg10 mi
2:54 AM47 °FOvercast.3 mph64%30.11 "Hg10 mi
1:54 AM45 °FMostly cloudy.No wind71%30.16 "Hg10 mi
12:54 AM45 °FMostly cloudy.No wind68%30.15 "Hg10 mi
11:54 PM
Nov 25
43 °FOvercast.No wind76%30.16 "Hg10 mi
10:54 PM44 °FOvercast.No wind71%30.15 "Hg10 mi
9:54 PM44 °FMostly cloudy.No wind71%30.15 "Hg10 mi
Weather by CustomWeather, © 2014

See weather overviewHow to use our weather pages